World > North America > United States > Texas   Visit Dallas, TX

Dallas, Texas Regional Weather

Lat: 32.79N, Lon: 96.77W
Wx Zone: TXZ119Web Search
Dallas Weather Warning NWS WEATHER ALERT FOR THE DALLAS, TX AREA - DENSE FOG ADVISORY Issued: 717 AM CST Sat Feb 27 2021 Dallas Weather Warning  

Helpful Tip: You can add this page to Bookmarks by pressing the Ctrl key & d key at the same time. Mac users press command & d.

Feedback
Dallas Weather Map
UTC Time: 2/27/2021, 15:50
Your Time:

Dallas, TX Regional Weather

Expires:202102271600;;203428
ASUS44 KFWD 271515
RWRTX 
NORTH TEXAS HOURLY WEATHER ROUNDUP
NATIONAL WEATHER SERVICE FORT WORTH TX
900 AM CST SAT FEB 27 2021

NOTE: "FAIR" INDICATES FEW OR NO CLOUDS BELOW 12,000 FEET WITH NO
SIGNIFICANT WEATHER AND/OR OBSTRUCTIONS TO VISIBILITY.


TXZ118-119-271600-
DALLAS/FORT WORTH METROPLEX
  
CITY           SKY/WX    TMP DP  RH WIND       PRES   REMARKS
DFW AIRPORT    FOG       54  54 100 E7        29.92S VSB 1/8          
DALLAS LOVE    FOG       55  53  93 E6        29.93R VSB 3/4          
FTW MEACHAM    FOG       53  53 100 E6        29.92R VSB 1/4          
DAL-EXECUTIVE  FOG       55  53  93 E7        29.92S VSB 1/4          
FTW-ALLIANCE   FOG       55  53  93 SE8       29.92R VSB 1/4          
FTW-NAS-JRB    FOG       55  54  96 E5        29.92R VSB 1/4          
FTW-SPINKS     FOG       55  55 100 CALM      29.93R VSB 1/4          
ARLINGTON      FOG       59  56  89 E3        29.92S VSB 1            
GRAND PRAIRIE  CLOUDY    55  55 100 CALM      29.94R FOG              
ADDISON        FOG       57  55  94 E10       29.94R VSB 1/4          
MESQUITE       CLOUDY    55  55 100 E8        29.95R FOG              
LANCASTER      CLOUDY    54  54  97 E5        29.94S FOG              
$$


SKY/WX - Weather  TMP - Temperature  DP - Dew Point  RH - Relative Humidity
WIND - Wind Direction/Speed PRES - Barometric Pressure VSB - Visibility
WCI - Wind Chill Index E13G22 Wind - East Wind 13 mph/Gusts of 22 mph